Change the Weather History Date:

Tuesday, February 5, 2013

  Actual Average Record
Temperature  
Mean Temperature 54 °F -  
Max Temperature 57 °F 64 °F 87 °F (2007)
Min Temperature 51 °F 44 °F 39 °F (2002)
Degree Days  
Heating Degree Days 11    
Growing Degree Days 4 (Base 50)    
Moisture  
Dew Point 47 °F    
Average Humidity 80    
Maximum Humidity 92    
Minimum Humidity 72    
Precipitation  
Precipitation 0.00 in - - ()
Sea Level Pressure  
Sea Level Pressure 30.04 in    
Wind  
Wind Speed 2 mph (West)    
Max Wind Speed 7 mph    
Max Gust Speed -    
Visibility 6 miles    
Events Fog    
Averages and records for this station are not official NWS values.
T = Trace of Precipitation, MM = Missing Value Source: NWS Daily Summary

Daily Weather History Graph

Daily Weather History Graph

Search for Another Location

Airport or City:

Trip Planner

Search our weather history database for the weather conditions in past years. The results will help you decide how hot, cold, wet, or windy it might be!

Date:

Astronomy

Feb. 05, 2013 Rise Set
Actual Time 6:40 AM PST 5:25 PM PST
Civil Twilight 6:14 AM PST 5:50 PM PST
Nautical Twilight 5:45 AM PST 6:20 PM PST
Astronomical Twilight 5:16 AM PST 6:49 PM PST
Moon 2:21 AM PST (2/5) 12:53 PM PST (2/5)
Length of Visible Light 11h 36m
Length of Day
10h 44m
Waning Crescent, 25% of the Moon is Illuminated
Feb 5
Waning Crescent
Feb 9
New
Feb 17
First Quarter
Feb 25
Full
Mar 4
Last Quarter

Hourly Weather History & Observations

Time (PST) Temp. Dew Point Humidity Pressure Visibility Wind Dir Wind Speed Gust Speed Precip Events Conditions
12:55 AM 52.0 °F 48.9 °F 89% 30.05 in 2.5 mi East 3.5 mph - N/A   Overcast
1:55 AM 52.0 °F 48.9 °F 89% 30.04 in 2.0 mi Calm Calm - N/A   Overcast
2:55 AM 52.0 °F 48.9 °F 89% 30.02 in 0.5 mi ENE 3.5 mph - N/A Fog Fog
3:55 AM 52.0 °F 48.9 °F 89% 30.02 in 0.5 mi Calm Calm - N/A Fog Fog
4:55 AM 52.0 °F 48.9 °F 89% 30.01 in 2.0 mi Calm Calm - N/A   Overcast
5:55 AM 52.0 °F 48.9 °F 89% 30.01 in 0.5 mi SW 3.5 mph - N/A Fog Fog
6:55 AM 51.1 °F 48.9 °F 92% 30.04 in 0.5 mi Calm Calm - N/A Fog Fog
7:55 AM 51.1 °F 48.0 °F 89% 30.08 in 2.0 mi Calm Calm - N/A   Overcast
8:55 AM 52.0 °F 48.0 °F 86% 30.09 in 2.0 mi Calm Calm - N/A   Overcast
9:41 AM 53.6 °F 48.2 °F 82% 30.10 in 5.0 mi Calm Calm - N/A   Overcast
9:55 AM 53.1 °F 48.0 °F 83% 30.10 in 5.0 mi South 3.5 mph - N/A   Overcast
10:55 AM 55.0 °F 48.0 °F 77% 30.09 in 5.0 mi SSE 3.5 mph - N/A   Overcast
11:55 AM 55.0 °F 46.9 °F 74% 30.07 in 6.0 mi Calm Calm - N/A   Overcast
12:55 PM 57.0 °F 48.0 °F 72% 30.02 in 6.0 mi NW 3.5 mph - N/A   Overcast
1:55 PM 57.0 °F 48.0 °F 72% 30.01 in 10.0 mi Variable 3.5 mph - N/A   Overcast
2:55 PM 55.9 °F 46.9 °F 72% 30.00 in 10.0 mi WNW 6.9 mph - N/A   Overcast
3:55 PM 55.0 °F 46.9 °F 74% 30.00 in 10.0 mi North 5.8 mph - N/A   Overcast
4:55 PM 55.0 °F 46.9 °F 74% 30.00 in 10.0 mi WSW 3.5 mph - N/A   Overcast
5:55 PM 54.0 °F 46.0 °F 75% 30.02 in 10.0 mi West 3.5 mph - N/A   Overcast
6:55 PM 54.0 °F 46.0 °F 75% 30.03 in 10.0 mi North 5.8 mph - N/A   Overcast
7:55 PM 54.0 °F 46.0 °F 75% 30.03 in 10.0 mi Calm Calm - N/A   Overcast
8:55 PM 54.0 °F 46.0 °F 75% 30.03 in 10.0 mi Calm Calm - N/A   Overcast
9:55 PM 54.0 °F 46.0 °F 75% 30.04 in 10.0 mi West 6.9 mph - N/A   Overcast
10:24 PM 53.6 °F 46.4 °F 77% 30.03 in 10.0 mi West 4.6 mph - N/A   Overcast
10:55 PM 54.0 °F 46.0 °F 75% 30.03 in 10.0 mi West 3.5 mph - N/A   Overcast
11:55 PM 54.0 °F 46.0 °F 75% 30.03 in 10.0 mi Calm Calm - N/A   Overcast